星链-36690(STARLINK-36690)

导读 | 豆包AI

STARLINK-36690是美国SpaceX星链星座的成员卫星,于2026年2月20日发射升空。星链项目旨在构建全球卫星互联网星座,为全球用户提供高速低延迟的宽带服务。该卫星延续星链标准设计,部署于近地轨道,承担覆盖补网与容量扩容任务,进一步完善星链星座全球覆盖能力,支撑星座服务性能提升。

基本信息
目录编号:
67856
目录名称:
STARLINK-36843
国际标识:
2026-034G
轨道中心:
EARTH
卫星名称:
星链-36690
卫星全名:
星链-36690(STARLINK-36690)
卫星状态:
在轨 (已飞行22 天)
发射日期:
2026-02-20 UTC
国别 :
美国 (US)
星等 :
--
轨道信息
数据来源 国际轨道数据
星历时间: 2026-03-14T04:03:19+0800
23小时前
查看轨道信息
半长轴: 6705.652km
偏心率: 0.0000849
轨道倾角: 53.158°
近地点辐角 131.768°
升交点赤经 190.518°
平近点角 228.342°
近地点: 326.945km
远地点: 328.085km
周期: 91.080分钟
每日圈数: 15.810342
详细信息
固有亮度:
5
最大亮度:
2.5
卫星平台:
Starlink V1.0
覆盖范围:
全球
运营商:
太空探索技术公司
运营商所在国:
美国
制造商(研发单位):
太空探索技术公司
制造商所在国:
美国
使用方式:
暂无
卫星简介
Starlink 计划是 SpaceX 推出的全球卫星互联网项目,通过发射低轨道卫星,为全球尤其是偏远地区提供高速、低延迟的互联网服务。自 2019 年起,Starlink 已部署数千颗卫星,旨在缩小全球数字鸿沟,推动互联网普及。该项目还为军事、航空等行业提供通信支持,带来广泛经济效益。
2D轨道图
3D轨道图
轨道高度分析图
轨道倾角分析图
轨道综合分析图
查看轨道综合分析图